| time (UTC) | temp F | wind direction | speed MPH | gust MPH | rain 1hr in | rain 24hr in | rain mn in | humidity % | barometer mb |
| 20260904075405 | 75 | 86 | 8.0 | 14.0 | 0.00 | 0.02 | 0.02 | 79 | 1021.9 |
| 20260904074905 | 74 | 68 | 9.0 | 13.0 | 0.00 | 0.02 | 0.02 | 81 | 1022.1 |
| 20260904074405 | 73 | 82 | 5.0 | 15.0 | 0.00 | 0.02 | 0.02 | 83 | 1022.2 |
| 20260904073405 | 73 | 83 | 6.0 | 12.0 | 0.00 | 0.02 | 0.02 | 82 | 1022.3 |
| 20260904072905 | 73 | 85 | 9.0 | 15.0 | 0.00 | 0.02 | 0.02 | 81 | 1022.5 |
| 20260904072405 | 74 | 62 | 9.0 | 18.0 | 0.00 | 0.03 | 0.02 | 80 | 1022.5 |
| 20260904070905 | 75 | 77 | 9.0 | 18.0 | 0.00 | 0.20 | 0.02 | 74 | 1022.5 |
| 20260904070405 | 75 | 73 | 10.0 | 18.0 | 0.00 | 0.32 | 0.02 | 75 | 1022.5 |
| 20260904065905 | 74 | 71 | 7.0 | 14.0 | 0.00 | 0.32 | 0.02 | 78 | 1022.6 |
| 20260904065406 | 75 | 97 | 10.0 | 21.0 | 0.00 | 0.32 | 0.02 | 74 | 1022.6 |
| 20260904064405 | 76 | 76 | 7.0 | 18.0 | 0.02 | 0.32 | 0.02 | 75 | 1022.6 |
| 20260904063905 | 76 | 81 | 8.0 | 14.0 | 0.02 | 0.32 | 0.02 | 75 | 1022.7 |
| 20260904063406 | 75 | 83 | 9.0 | 15.0 | 0.02 | 0.32 | 0.02 | 77 | 1022.7 |
| 20260904062905 | 75 | 113 | 7.0 | 14.0 | 0.02 | 0.32 | 0.02 | 78 | 1022.7 |
| 20260904062405 | 75 | 80 | 8.0 | 20.0 | 0.02 | 0.32 | 0.02 | 78 | 1022.8 |
| 20260904061905 | 75 | 105 | 8.0 | 16.0 | 0.02 | 0.32 | 0.02 | 79 | 1023.0 |
| 20260904060906 | 73 | 74 | 8.0 | 17.0 | 0.02 | 0.32 | 0.02 | 83 | 1023.1 |
| 20260904060406 | 72 | 80 | 7.0 | 14.0 | 0.02 | 0.32 | 0.02 | 85 | 1023.1 |
| 20260904055905 | 72 | 76 | 7.0 | 15.0 | 0.02 | 0.32 | 0.02 | 85 | 1023.1 |
| 20260904055406 | 72 | 76 | 9.0 | 15.0 | 0.02 | 0.32 | 0.02 | 84 | 1023.0 |
| 20260904054905 | 73 | 77 | 9.0 | 16.0 | 0.00 | 0.31 | 0.00 | 84 | 1023.0 |
| 20260904054406 | 73 | 74 | 7.0 | 14.0 | 0.00 | 0.31 | 0.00 | 83 | 1022.9 |
| 20260904053905 | 74 | 76 | 8.0 | 18.0 | 0.00 | 0.31 | 0.00 | 82 | 1023.0 |
| 20260904053405 | 75 | 81 | 8.0 | 12.0 | 0.00 | 0.31 | 0.00 | 80 | 1023.0 |
| 20260904052905 | 75 | 75 | 8.0 | 16.0 | 0.00 | 0.31 | 0.00 | 80 | 1022.9 |
| 20260904052406 | 74 | 77 | 9.0 | 15.0 | 0.00 | 0.31 | 0.00 | 81 | 1022.9 |
| 20260904051905 | 74 | 63 | 10.0 | 17.0 | 0.00 | 0.31 | 0.00 | 82 | 1023.0 |
| 20260904051406 | 73 | 59 | 7.0 | 16.0 | 0.00 | 0.31 | 0.00 | 82 | 1022.9 |
| 20260904050905 | 74 | 74 | 9.0 | 16.0 | 0.00 | 0.31 | 0.00 | 80 | 1023.0 |
| 20260904050406 | 75 | 74 | 7.0 | 14.0 | 0.00 | 0.31 | 0.00 | 77 | 1022.9 |
| 20260904045905 | 76 | 67 | 9.0 | 22.0 | 0.00 | 0.31 | 0.00 | 75 | 1022.9 |
| 20260904045405 | 75 | 91 | 10.0 | 20.0 | 0.00 | 0.31 | 0.00 | 74 | 1022.9 |
| 20260904044405 | 74 | 85 | 7.0 | 15.0 | 0.00 | 0.31 | 0.00 | 76 | 1022.8 |
| 20260904042905 | 74 | 91 | 5.0 | 16.0 | 0.00 | 0.31 | 0.00 | 75 | 1022.8 |
| 20260904042405 | 75 | 91 | 9.0 | 18.0 | 0.00 | 0.31 | 0.00 | 74 | 1022.8 |
| 20260904041905 | 75 | 125 | 7.0 | 14.0 | 0.00 | 0.31 | 0.00 | 74 | 1022.8 |
| 20260904040905 | 74 | 93 | 10.0 | 18.0 | 0.00 | 0.32 | 0.00 | 78 | 1022.6 |
| 20260904040405 | 74 | 81 | 6.0 | 17.0 | 0.00 | 0.32 | 0.00 | 78 | 1022.6 |
| 20260904035405 | 74 | 87 | 9.0 | 16.0 | 0.00 | 0.32 | 0.00 | 78 | 1022.5 |
| 20260904034905 | 74 | 89 | 6.0 | 13.0 | 0.00 | 0.32 | 0.00 | 78 | 1022.5 |
| 20260904034405 | 73 | 83 | 7.0 | 16.0 | 0.00 | 0.32 | 0.00 | 77 | 1022.5 |
| 20260904033906 | 74 | 83 | 6.0 | 15.0 | 0.00 | 0.32 | 0.00 | 76 | 1022.4 |
| 20260904033405 | 73 | 74 | 9.0 | 14.0 | 0.00 | 0.32 | 0.00 | 76 | 1022.5 |
| 20260904032905 | 73 | 91 | 7.0 | 12.0 | 0.00 | 0.32 | 0.00 | 79 | 1022.4 |
| 20260904032405 | 73 | 90 | 3.0 | 9.0 | 0.00 | 0.32 | 0.00 | 81 | 1022.3 |
| 20260904031906 | 72 | 111 | 4.0 | 10.0 | 0.00 | 0.32 | 0.00 | 81 | 1022.3 |
| 20260904031405 | 72 | 113 | 5.0 | 12.0 | 0.00 | 0.32 | 0.00 | 81 | 1022.3 |
| 20260904030905 | 73 | 92 | 5.0 | 15.0 | 0.00 | 0.32 | 0.00 | 81 | 1022.2 |
| 20260904030405 | 72 | 76 | 6.0 | 12.0 | 0.00 | 0.32 | 0.00 | 81 | 1022.1 |
| 20260904025905 | 72 | 50 | 3.0 | 12.0 | 0.00 | 0.32 | 0.00 | 83 | 1022.1 |
| 20260904025406 | 72 | 68 | 5.0 | 12.0 | 0.00 | 0.32 | 0.00 | 83 | 1022.0 |
| 20260904024905 | 71 | 75 | 4.0 | 9.0 | 0.00 | 0.32 | 0.00 | 82 | 1021.9 |
| 20260904024406 | 70 | 83 | 5.0 | 10.0 | 0.00 | 0.33 | 0.00 | 84 | 1021.9 |
| 20260904023905 | 70 | 94 | 4.0 | 9.0 | 0.00 | 0.33 | 0.00 | 86 | 1021.8 |
| 20260904023406 | 70 | 86 | 1.0 | 6.0 | 0.00 | 0.33 | 0.00 | 86 | 1021.9 |
| 20260904022405 | 70 | 80 | 3.0 | 8.0 | 0.00 | 0.35 | 0.00 | 85 | 1021.9 |
| 20260904021405 | 70 | 89 | 5.0 | 12.0 | 0.00 | 0.35 | 0.00 | 85 | 1021.8 |
| 20260904020905 | 70 | 110 | 4.0 | 8.0 | 0.00 | 0.35 | 0.00 | 85 | 1021.7 |
| 20260904020405 | 69 | 100 | 5.0 | 10.0 | 0.00 | 0.35 | 0.00 | 85 | 1021.7 |
| 20260904015906 | 69 | 105 | 5.0 | 14.0 | 0.00 | 0.35 | 0.00 | 85 | 1021.7 |
| 20260904015406 | 69 | 129 | 7.0 | 13.0 | 0.00 | 0.35 | 0.00 | 86 | 1021.7 |
| 20260904014906 | 69 | 108 | 3.0 | 10.0 | 0.00 | 0.35 | 0.00 | 87 | 1021.6 |
| 20260904013906 | 69 | 136 | 2.0 | 5.0 | 0.00 | 0.35 | 0.00 | 87 | 1021.5 |
| 20260904013405 | 69 | 155 | 0.0 | 3.0 | 0.00 | 0.35 | 0.00 | 86 | 1021.5 |
| 20260904012905 | 69 | 155 | 0.0 | 2.0 | 0.00 | 0.35 | 0.00 | 86 | 1021.5 |
| 20260904012405 | 69 | 155 | 1.0 | 6.0 | 0.00 | 0.35 | 0.00 | 86 | 1021.4 |
| 20260904011406 | 69 | 174 | 2.0 | 6.0 | 0.00 | 0.35 | 0.00 | 85 | 1021.4 |
| 20260904010905 | 69 | 198 | 3.0 | 6.0 | 0.00 | 0.35 | 0.00 | 84 | 1021.4 |
| 20260904010405 | 70 | 193 | 2.0 | 7.0 | 0.00 | 0.35 | 0.00 | 83 | 1021.3 |
| 20260904005905 | 70 | 153 | 3.0 | 8.0 | 0.00 | 0.35 | 0.00 | 83 | 1021.3 |
| 20260904005405 | 71 | 147 | 3.0 | 7.0 | 0.00 | 0.35 | 0.00 | 83 | 1021.3 |
| 20260904004905 | 71 | 28 | 4.0 | 9.0 | 0.00 | 0.35 | 0.00 | 83 | 1021.3 |
| 20260904004406 | 71 | 126 | 4.0 | 8.0 | 0.00 | 0.35 | 0.00 | 82 | 1021.5 |
| 20260904003905 | 71 | 110 | 3.0 | 7.0 | 0.00 | 0.35 | 0.00 | 82 | 1021.4 |
| 20260904003405 | 71 | 108 | 6.0 | 9.0 | 0.00 | 0.35 | 0.00 | 82 | 1021.3 |
| 20260904002905 | 71 | 110 | 5.0 | 9.0 | 0.00 | 0.35 | 0.00 | 82 | 1021.4 |
| 20260904002405 | 71 | 99 | 5.0 | 12.0 | 0.00 | 0.35 | 0.00 | 82 | 1021.4 |
| 20260904001905 | 71 | 101 | 3.0 | 9.0 | 0.00 | 0.35 | 0.00 | 82 | 1021.4 |
| 20260904001405 | 71 | 123 | 2.0 | 8.0 | 0.00 | 0.35 | 0.00 | 81 | 1021.3 |
| 20260904000905 | 71 | 82 | 3.0 | 10.0 | 0.00 | 0.35 | 0.00 | 81 | 1021.4 |
| 20260904000405 | 70 | 98 | 3.0 | 8.0 | 0.00 | 0.35 | 0.00 | 82 | 1021.4 |
| 20260903235905 | 71 | 121 | 4.0 | 9.0 | 0.00 | 0.35 | 0.00 | 82 | 1021.4 |
| 20260903234905 | 71 | 109 | 2.0 | 8.0 | 0.00 | 0.35 | 0.00 | 82 | 1021.4 |
| 20260903233905 | 71 | 94 | 7.0 | 12.0 | 0.00 | 0.35 | 0.00 | 81 | 1021.5 |
| 20260903233405 | 71 | 97 | 5.0 | 10.0 | 0.00 | 0.35 | 0.00 | 81 | 1021.5 |
| 20260903232905 | 71 | 84 | 3.0 | 9.0 | 0.00 | 0.35 | 0.00 | 81 | 1021.4 |
| 20260903232405 | 71 | 113 | 3.0 | 12.0 | 0.00 | 0.35 | 0.00 | 82 | 1021.4 |
| 20260903231905 | 71 | 90 | 4.0 | 12.0 | 0.00 | 0.35 | 0.00 | 82 | 1021.5 |
| 20260903231405 | 70 | 111 | 5.0 | 10.0 | 0.00 | 0.35 | 0.00 | 82 | 1021.5 |
| 20260903230405 | 70 | 110 | 3.0 | 7.0 | 0.00 | 0.35 | 0.00 | 83 | 1021.6 |
| 20260903225405 | 70 | 114 | 4.0 | 9.0 | 0.00 | 0.35 | 0.00 | 83 | 1021.6 |
| 20260903224905 | 70 | 87 | 3.0 | 7.0 | 0.00 | 0.35 | 0.00 | 83 | 1021.7 |
| 20260903224405 | 70 | 117 | 3.0 | 6.0 | 0.00 | 0.35 | 0.00 | 83 | 1021.7 |
| 20260903223905 | 70 | 95 | 2.0 | 9.0 | 0.00 | 0.35 | 0.00 | 84 | 1021.7 |
| 20260903222905 | 70 | 112 | 3.0 | 7.0 | 0.00 | 0.35 | 0.00 | 84 | 1021.8 |
| 20260903222405 | 70 | 80 | 2.0 | 10.0 | 0.00 | 0.35 | 0.00 | 84 | 1021.7 |
| 20260903221905 | 70 | 131 | 2.0 | 7.0 | 0.00 | 0.35 | 0.00 | 84 | 1021.8 |
| 20260903221408 | 70 | 70 | 3.0 | 9.0 | 0.00 | 0.35 | 0.00 | 84 | 1021.9 |
| 20260903220905 | 70 | 120 | 5.0 | 9.0 | 0.00 | 0.35 | 0.00 | 84 | 1021.8 |
| 20260903220405 | 70 | 78 | 5.0 | 12.0 | 0.00 | 0.35 | 0.00 | 85 | 1021.8 |
| 20260903215905 | 70 | 99 | 3.0 | 8.0 | 0.00 | 0.35 | 0.00 | 84 | 1021.9 |
| 20260903215405 | 70 | 103 | 3.0 | 8.0 | 0.00 | 0.35 | 0.00 | 83 | 1021.9 |
| 20260903214905 | 70 | 108 | 4.0 | 12.0 | 0.00 | 0.35 | 0.00 | 82 | 1021.9 |
| 20260903213905 | 72 | 119 | 9.0 | 15.0 | 0.00 | 0.35 | 0.00 | 76 | 1022.2 |
| 20260903213405 | 72 | 106 | 5.0 | 12.0 | 0.00 | 0.35 | 0.00 | 78 | 1022.0 |
| 20260903212906 | 72 | 94 | 3.0 | 12.0 | 0.00 | 0.35 | 0.00 | 79 | 1022.1 |
| 20260903212404 | 72 | 85 | 6.0 | 10.0 | 0.00 | 0.35 | 0.00 | 79 | 1022.1 |
| 20260903211905 | 72 | 79 | 6.0 | 15.0 | 0.00 | 0.35 | 0.00 | 79 | 1022.1 |
| 20260903211406 | 72 | 110 | 5.0 | 10.0 | 0.00 | 0.35 | 0.00 | 79 | 1022.2 |
| 20260903210405 | 72 | 113 | 3.0 | 9.0 | 0.00 | 0.35 | 0.00 | 78 | 1022.3 |
| 20260903205905 | 72 | 86 | 5.0 | 12.0 | 0.00 | 0.35 | 0.00 | 78 | 1022.3 |
| 20260903205405 | 72 | 83 | 5.0 | 12.0 | 0.00 | 0.35 | 0.00 | 78 | 1022.4 |
| 20260903204905 | 72 | 99 | 4.0 | 12.0 | 0.00 | 0.35 | 0.00 | 79 | 1022.5 |
| 20260903204405 | 72 | 114 | 7.0 | 18.0 | 0.00 | 0.35 | 0.00 | 79 | 1022.5 |
| 20260903203905 | 72 | 96 | 6.0 | 13.0 | 0.00 | 0.35 | 0.00 | 79 | 1022.6 |
| 20260903203406 | 72 | 107 | 3.0 | 12.0 | 0.00 | 0.35 | 0.00 | 79 | 1022.7 |
| 20260903202905 | 72 | 89 | 3.0 | 8.0 | 0.00 | 0.35 | 0.00 | 78 | 1022.7 |
| 20260903202406 | 72 | 103 | 4.0 | 12.0 | 0.00 | 0.35 | 0.00 | 77 | 1022.9 |
| 20260903201905 | 72 | 88 | 5.0 | 9.0 | 0.00 | 0.35 | 0.00 | 76 | 1022.8 |
| 20260903201405 | 73 | 106 | 5.0 | 12.0 | 0.00 | 0.35 | 0.00 | 77 | 1022.9 |
| 20260903200905 | 73 | 95 | 5.0 | 10.0 | 0.00 | 0.35 | 0.00 | 76 | 1022.9 |
| 20260903200405 | 73 | 97 | 7.0 | 15.0 | 0.00 | 0.35 | 0.00 | 77 | 1023.0 |
| 20260903195905 | 73 | 91 | 7.0 | 12.0 | 0.00 | 0.35 | 0.35 | 77 | 1023.0 |
| 20260903195405 | 73 | 95 | 6.0 | 10.0 | 0.00 | 0.35 | 0.35 | 76 | 1023.0 |
| 20260903194905 | 72 | 88 | 4.0 | 12.0 | 0.00 | 0.35 | 0.35 | 76 | 1023.1 |
| 20260903194405 | 72 | 99 | 2.0 | 7.0 | 0.00 | 0.35 | 0.35 | 76 | 1023.1 |
| 20260903193905 | 73 | 79 | 4.0 | 12.0 | 0.00 | 0.35 | 0.35 | 76 | 1023.0 |
| 20260903192905 | 73 | 88 | 5.0 | 13.0 | 0.00 | 0.35 | 0.35 | 76 | 1023.1 |
| 20260903192405 | 73 | 93 | 6.0 | 12.0 | 0.00 | 0.35 | 0.35 | 76 | 1023.1 |
| 20260903191905 | 73 | 120 | 6.0 | 12.0 | 0.00 | 0.35 | 0.35 | 76 | 1023.1 |
| 20260903191405 | 73 | 93 | 6.0 | 13.0 | 0.00 | 0.35 | 0.35 | 76 | 1023.1 |
| 20260903190905 | 73 | 104 | 3.0 | 12.0 | 0.00 | 0.35 | 0.35 | 77 | 1023.1 |
| 20260903185405 | 73 | 97 | 4.0 | 10.0 | 0.00 | 0.35 | 0.35 | 77 | 1022.9 |
| 20260903184905 | 73 | 108 | 5.0 | 12.0 | 0.00 | 0.35 | 0.35 | 76 | 1022.9 |
| 20260903184405 | 73 | 87 | 6.0 | 12.0 | 0.00 | 0.35 | 0.35 | 77 | 1022.8 |
| 20260903183905 | 73 | 86 | 7.0 | 12.0 | 0.00 | 0.35 | 0.35 | 77 | 1022.8 |
| 20260903183405 | 73 | 89 | 4.0 | 14.0 | 0.00 | 0.35 | 0.35 | 77 | 1022.8 |
| 20260903182405 | 73 | 106 | 6.0 | 12.0 | 0.00 | 0.35 | 0.35 | 77 | 1022.7 |
| 20260903181905 | 73 | 85 | 4.0 | 16.0 | 0.00 | 0.35 | 0.35 | 77 | 1022.7 |
| 20260903181405 | 73 | 95 | 4.0 | 15.0 | 0.00 | 0.35 | 0.35 | 77 | 1022.7 |
| 20260903180905 | 73 | 100 | 6.0 | 14.0 | 0.00 | 0.35 | 0.35 | 77 | 1022.6 |
| 20260903180405 | 73 | 84 | 6.0 | 14.0 | 0.00 | 0.38 | 0.35 | 78 | 1022.6 |
| 20260903175905 | 73 | 66 | 7.0 | 12.0 | 0.00 | 0.39 | 0.35 | 77 | 1022.7 |
| 20260903175405 | 73 | 95 | 5.0 | 18.0 | 0.00 | 0.39 | 0.35 | 77 | 1022.6 |
| 20260903174905 | 73 | 135 | 6.0 | 13.0 | 0.00 | 0.39 | 0.35 | 78 | 1022.6 |
| 20260903174406 | 73 | 98 | 4.0 | 12.0 | 0.00 | 0.39 | 0.35 | 78 | 1022.6 |
| 20260903173405 | 73 | 89 | 6.0 | 12.0 | 0.00 | 0.41 | 0.35 | 79 | 1022.6 |
| 20260903172405 | 72 | 92 | 5.0 | 9.0 | 0.00 | 0.45 | 0.35 | 79 | 1022.7 |
| 20260903170904 | 73 | 91 | 4.0 | 12.0 | 0.00 | 0.46 | 0.35 | 78 | 1022.7 |
| 20260903170405 | 73 | 86 | 5.0 | 10.0 | 0.00 | 0.46 | 0.35 | 78 | 1022.8 |
| 20260903165905 | 72 | 78 | 6.0 | 15.0 | 0.00 | 0.47 | 0.35 | 78 | 1022.8 |
| 20260903165405 | 72 | 83 | 4.0 | 8.0 | 0.00 | 0.49 | 0.35 | 77 | 1022.8 |
| 20260903164905 | 72 | 101 | 6.0 | 10.0 | 0.00 | 0.50 | 0.35 | 77 | 1022.7 |
| 20260903164405 | 72 | 74 | 5.0 | 12.0 | 0.00 | 0.52 | 0.35 | 77 | 1022.7 |
| 20260903163905 | 72 | 101 | 5.0 | 12.0 | 0.00 | 0.54 | 0.35 | 78 | 1022.7 |
| 20260903163405 | 72 | 114 | 2.0 | 9.0 | 0.00 | 0.56 | 0.35 | 78 | 1022.7 |
| 20260903162905 | 72 | 95 | 2.0 | 12.0 | 0.00 | 0.63 | 0.35 | 78 | 1022.6 |
| 20260903162404 | 72 | 103 | 4.0 | 10.0 | 0.00 | 0.63 | 0.35 | 78 | 1022.6 |
| 20260903161906 | 72 | 81 | 5.0 | 9.0 | 0.00 | 0.63 | 0.35 | 77 | 1022.5 |
| 20260903161405 | 72 | 86 | 5.0 | 10.0 | 0.00 | 0.63 | 0.35 | 77 | 1022.5 |
| 20260903160905 | 73 | 104 | 3.0 | 9.0 | 0.00 | 0.63 | 0.35 | 77 | 1022.4 |
| 20260903160405 | 73 | 87 | 6.0 | 12.0 | 0.00 | 0.63 | 0.35 | 77 | 1022.4 |
| 20260903155905 | 73 | 108 | 2.0 | 8.0 | 0.00 | 0.63 | 0.35 | 76 | 1022.4 |
| 20260903155405 | 73 | 78 | 4.0 | 13.0 | 0.00 | 0.63 | 0.35 | 76 | 1022.4 |
| 20260903154905 | 73 | 94 | 6.0 | 13.0 | 0.00 | 0.63 | 0.35 | 75 | 1022.3 |
| 20260903154404 | 73 | 77 | 6.0 | 14.0 | 0.00 | 0.63 | 0.35 | 75 | 1022.3 |
| 20260903153905 | 73 | 91 | 4.0 | 14.0 | 0.00 | 0.63 | 0.35 | 76 | 1022.3 |
| 20260903153405 | 73 | 89 | 6.0 | 16.0 | 0.00 | 0.63 | 0.35 | 77 | 1022.2 |
| 20260903152905 | 73 | 83 | 5.0 | 12.0 | 0.00 | 0.63 | 0.35 | 76 | 1022.1 |
| 20260903151905 | 72 | 79 | 7.0 | 12.0 | 0.00 | 0.64 | 0.35 | 79 | 1022.1 |
| 20260903150906 | 72 | 100 | 4.0 | 9.0 | 0.00 | 0.64 | 0.35 | 79 | 1022.0 |
| 20260903150405 | 73 | 98 | 5.0 | 12.0 | 0.00 | 0.64 | 0.35 | 78 | 1021.9 |
| 20260903145907 | 73 | 85 | 4.0 | 13.0 | 0.00 | 0.64 | 0.35 | 78 | 1021.9 |
| 20260903144905 | 73 | 87 | 6.0 | 13.0 | 0.00 | 0.64 | 0.35 | 78 | 1021.9 |
| 20260903144405 | 73 | 72 | 5.0 | 13.0 | 0.00 | 0.64 | 0.35 | 77 | 1021.9 |
| 20260903143905 | 73 | 89 | 5.0 | 10.0 | 0.00 | 0.64 | 0.35 | 77 | 1021.9 |
| 20260903143405 | 73 | 85 | 5.0 | 12.0 | 0.00 | 0.64 | 0.35 | 77 | 1021.8 |
| 20260903142905 | 73 | 91 | 6.0 | 12.0 | 0.00 | 0.64 | 0.35 | 77 | 1021.8 |
| 20260903142405 | 73 | 91 | 6.0 | 12.0 | 0.00 | 0.64 | 0.35 | 77 | 1021.8 |
| 20260903141905 | 73 | 91 | 5.0 | 13.0 | 0.00 | 0.64 | 0.35 | 77 | 1021.8 |
| 20260903141405 | 73 | 86 | 4.0 | 12.0 | 0.00 | 0.64 | 0.35 | 76 | 1021.8 |
| 20260903140905 | 73 | 77 | 6.0 | 12.0 | 0.00 | 0.64 | 0.35 | 76 | 1021.8 |
| 20260903140405 | 73 | 75 | 6.0 | 12.0 | 0.00 | 0.64 | 0.35 | 76 | 1021.7 |
| 20260903135905 | 73 | 75 | 5.0 | 12.0 | 0.00 | 0.64 | 0.35 | 77 | 1021.7 |
| 20260903135405 | 73 | 108 | 5.0 | 12.0 | 0.00 | 0.64 | 0.35 | 77 | 1021.6 |
| 20260903134905 | 73 | 97 | 5.0 | 15.0 | 0.00 | 0.64 | 0.35 | 76 | 1021.7 |
| 20260903133905 | 73 | 83 | 6.0 | 12.0 | 0.00 | 0.64 | 0.35 | 76 | 1021.6 |
| 20260903133405 | 73 | 88 | 6.0 | 12.0 | 0.00 | 0.64 | 0.35 | 77 | 1021.5 |
| 20260903132906 | 73 | 96 | 6.0 | 12.0 | 0.00 | 0.64 | 0.35 | 77 | 1021.5 |
| 20260903132405 | 73 | 109 | 6.0 | 15.0 | 0.00 | 0.64 | 0.35 | 77 | 1021.5 |
| 20260903130405 | 75 | 104 | 6.0 | 14.0 | 0.00 | 0.64 | 0.35 | 74 | 1021.4 |
| 20260903125905 | 75 | 80 | 6.0 | 14.0 | 0.00 | 0.64 | 0.35 | 75 | 1021.4 |
| 20260903125405 | 75 | 109 | 9.0 | 14.0 | 0.00 | 0.64 | 0.35 | 74 | 1021.4 |
| 20260903124906 | 75 | 75 | 8.0 | 16.0 | 0.00 | 0.64 | 0.35 | 73 | 1021.4 |
| 20260903124405 | 75 | 73 | 5.0 | 12.0 | 0.00 | 0.64 | 0.35 | 73 | 1021.3 |
| 20260903123905 | 75 | 66 | 7.0 | 16.0 | 0.00 | 0.64 | 0.35 | 72 | 1021.3 |
| 20260903122905 | 76 | 83 | 8.0 | 17.0 | 0.00 | 0.64 | 0.35 | 73 | 1021.2 |
| 20260903121905 | 76 | 94 | 8.0 | 15.0 | 0.00 | 0.64 | 0.35 | 71 | 1021.2 |
| 20260903121404 | 76 | 89 | 7.0 | 15.0 | 0.00 | 0.64 | 0.35 | 71 | 1021.3 |
| 20260903120405 | 76 | 86 | 6.0 | 18.0 | 0.00 | 0.64 | 0.35 | 73 | 1021.2 |
| 20260903115905 | 76 | 96 | 10.0 | 18.0 | 0.00 | 0.64 | 0.35 | 72 | 1021.3 |
| 20260903115406 | 76 | 88 | 9.0 | 16.0 | 0.00 | 0.64 | 0.35 | 72 | 1021.1 |
| 20260903114906 | 76 | 93 | 9.0 | 16.0 | 0.00 | 0.64 | 0.35 | 72 | 1021.1 |
| 20260903113905 | 76 | 102 | 9.0 | 15.0 | 0.00 | 0.64 | 0.35 | 74 | 1021.1 |
| 20260903113405 | 75 | 92 | 8.0 | 18.0 | 0.00 | 0.64 | 0.35 | 76 | 1021.0 |
| 20260903112905 | 75 | 74 | 7.0 | 13.0 | 0.00 | 0.64 | 0.35 | 78 | 1021.0 |
| 20260903112405 | 74 | 95 | 5.0 | 12.0 | 0.00 | 0.64 | 0.35 | 79 | 1021.0 |
| 20260903111904 | 73 | 103 | 7.0 | 16.0 | 0.00 | 0.64 | 0.35 | 79 | 1021.1 |
| 20260903111406 | 74 | 124 | 6.0 | 12.0 | 0.00 | 0.64 | 0.35 | 78 | 1021.3 |
| 20260903110905 | 75 | 99 | 7.0 | 22.0 | 0.00 | 0.64 | 0.35 | 75 | 1021.4 |
| 20260903110405 | 76 | 120 | 6.0 | 20.0 | 0.00 | 0.64 | 0.35 | 74 | 1021.4 |
| 20260903105906 | 76 | 122 | 9.0 | 15.0 | 0.00 | 0.64 | 0.35 | 74 | 1021.3 |
| 20260903105404 | 76 | 114 | 6.0 | 16.0 | 0.00 | 0.64 | 0.35 | 75 | 1021.4 |
| 20260903104906 | 75 | 122 | 8.0 | 18.0 | 0.00 | 0.64 | 0.35 | 75 | 1021.4 |
| 20260903104405 | 75 | 107 | 6.0 | 15.0 | 0.00 | 0.64 | 0.35 | 77 | 1021.4 |
| 20260903103904 | 74 | 95 | 5.0 | 15.0 | 0.00 | 0.64 | 0.35 | 76 | 1021.5 |
| 20260903103405 | 73 | 111 | 5.0 | 10.0 | 0.01 | 0.64 | 0.35 | 79 | 1021.5 |
| 20260903102905 | 72 | 132 | 1.0 | 12.0 | 0.01 | 0.64 | 0.35 | 80 | 1021.5 |
| 20260903102405 | 71 | 81 | 3.0 | 12.0 | 0.01 | 0.64 | 0.35 | 79 | 1021.7 |
| 20260903101905 | 72 | 66 | 5.0 | 13.0 | 0.01 | 0.64 | 0.35 | 78 | 1021.7 |
| 20260903101405 | 74 | 44 | 7.0 | 14.0 | 0.01 | 0.64 | 0.35 | 78 | 1021.8 |
| 20260903100906 | 74 | 74 | 6.0 | 12.0 | 0.01 | 0.64 | 0.35 | 78 | 1021.8 |
| 20260903100405 | 73 | 111 | 6.0 | 12.0 | 0.01 | 0.64 | 0.35 | 80 | 1021.8 |
| 20260903095404 | 73 | 121 | 1.0 | 9.0 | 0.01 | 0.64 | 0.35 | 82 | 1021.9 |
| 20260903094905 | 73 | 65 | 5.0 | 10.0 | 0.01 | 0.64 | 0.35 | 82 | 1022.0 |
| 20260903094405 | 73 | 85 | 5.0 | 12.0 | 0.01 | 0.64 | 0.35 | 82 | 1022.1 |
| 20260903093405 | 75 | 65 | 7.0 | 14.0 | 0.00 | 0.63 | 0.35 | 77 | 1022.1 |
| 20260903092905 | 74 | 98 | 5.0 | 13.0 | 0.00 | 0.63 | 0.35 | 76 | 1022.2 |
| 20260903092405 | 74 | 95 | 6.0 | 13.0 | 0.00 | 0.63 | 0.35 | 76 | 1022.2 |
| 20260903091905 | 73 | 101 | 7.0 | 13.0 | 0.00 | 0.63 | 0.35 | 75 | 1022.4 |
| 20260903091405 | 74 | 82 | 6.0 | 12.0 | 0.00 | 0.63 | 0.35 | 76 | 1022.5 |
| 20260903090905 | 74 | 77 | 5.0 | 12.0 | 0.00 | 0.63 | 0.35 | 78 | 1022.6 |
| 20260903090405 | 73 | 81 | 1.0 | 8.0 | 0.00 | 0.63 | 0.35 | 79 | 1022.6 |
| 20260903085905 | 73 | 94 | 6.0 | 12.0 | 0.00 | 0.63 | 0.35 | 79 | 1022.6 |
| 20260903085405 | 73 | 125 | 6.0 | 12.0 | 0.00 | 0.63 | 0.35 | 79 | 1022.8 |
| 20260903084905 | 73 | 75 | 6.0 | 10.0 | 0.00 | 0.63 | 0.35 | 79 | 1022.8 |
| 20260903084405 | 73 | 88 | 6.0 | 12.0 | 0.00 | 0.63 | 0.35 | 79 | 1022.8 |
| 20260903083905 | 72 | 102 | 5.0 | 12.0 | 0.00 | 0.63 | 0.35 | 80 | 1022.9 |
| 20260903083406 | 72 | 88 | 7.0 | 13.0 | 0.00 | 0.63 | 0.35 | 81 | 1023.0 |
| 20260903082405 | 71 | 92 | 5.0 | 12.0 | 0.01 | 0.63 | 0.35 | 85 | 1023.2 |
| 20260903081906 | 70 | 108 | 5.0 | 12.0 | 0.02 | 0.63 | 0.35 | 87 | 1023.4 |
| 20260903081405 | 70 | 92 | 6.0 | 15.0 | 0.14 | 0.63 | 0.35 | 87 | 1023.6 |
| 20260903080905 | 70 | 133 | 7.0 | 14.0 | 0.18 | 0.63 | 0.35 | 87 | 1023.7 |
| 20260903075905 | 70 | 114 | 10.0 | 24.0 | 0.30 | 0.63 | 0.35 | 88 | 1023.8 |